User: anonymous   Login
Location: Fort Wayne
(41.1310°N, 85.1290°W)
Time: 08:15:41
(UTC-04:00)
Language:

Cosmos 1980 - Orbit

View from above orbital plane
View from above orbital plane
View from above satellite
View from above satellite

Ground track
Ground track

The orbit data is extracted from the following two-line orbital elements,

1 19649U 88102A   17116.50959299 -.00000276 +00000-0 -11873-3 0  9992
2 19649 070.9995 174.3030 0004574 005.5772 354.5400 14.14662647466990
Epoch (UTC): 26 April 2017 12:13:48
Eccentricity: 0.0004574
inclination: 70.9995°
perigee height: 840 km
apogee height: 847 km
right ascension of ascending node: 174.3030°
argument of perigee: 5.5772°
revolutions per day: 14.14662647
mean anomaly at epoch: 354.5400°
orbit number at epoch: 46699

The dashed part of the orbit path shows where the satellite is in the earth's shadow,  

DLR